Вернуться в каталог

STARLINK-5227

АктивенСвязьVLEO
NORAD 54181·PAYLOAD·🇺🇸 United States

Запущен Oct 28, 2022 с Vandenberg Space Force Base

Loading…

Ближайшие Пролёты (ближайшие 24 часа)

TLE

СвежийSource: CelesTrak SupGP

Эпоха: Sep 15, 2026, 02:11 UTC

1 54181C 22141AA  26258.09145833 -.00049508  00000+0 -14629-2 0  2584
2 54181  53.1580 219.0658 0001354  89.9360 239.1909 15.34410951    19

Отслеживайте STARLINK-5227 в реальном времени с AllMySat

Download on the App Store